This demonstration page uses our WeatherBlox Daily Observations layout. Learn more.

Hourly Observations for June 30, 2019

Temp ( °F °C ) Dew Point ( °F °C ) Humidity (%) Winds ( mph kmh ) Pressure ( in mb ) Visibility ( mi km ) Precip ( " mm )
12:15 am 00:15 Clear 79 26.1 64 18 61 61 S 10 17 29.91 1013 10 16.09344 0 0
12:35 am 00:35 Clear 79 26.1 64 17.9 61 61 S 10 17 29.91 1013 10 16.09344 0 0
12:55 am 00:55 Clear 78 25.8 64 17.7 61 61 S 10 17 29.91 1013 10 16.09344 0 0
1:15 am 01:15 Clear 78 25.5 64 17.6 62 62 S 10 17 29.91 1013 10 16.09344 0 0
1:35 am 01:35 Clear 78 25.6 64 17.5 61 61 SSE 8 13 29.91 1013 10 16.09344 0 0
1:55 am 01:55 Clear 77 25.2 64 17.5 62 62 SSE 10 17 29.91 1013 10 16.09344 0 0
2:15 am 02:15 Clear 76 24.6 63 17.4 64 64 SSE 9 15 29.91 1013 10 16.09344 0 0
2:35 am 02:35 Clear 76 24.2 63 17.4 66 66 SSE 8 13 29.91 1013 10 16.09344 0 0
2:55 am 02:55 Clear 75 24 63 17.3 66 66 SSE 7 11 29.91 1013 10 16.09344 0 0
3:15 am 03:15 Clear 74 23.6 63 17.3 68 68 SE 5 7 29.94 1014 10 16.09344 0 0
3:35 am 03:35 Clear 72 22.1 63 17.3 74 74 Calm 29.94 1014 10 16.09344 0 0
3:55 am 03:55 Clear 71 21.7 63 17.3 76 76 ESE 5 7 29.94 1014 10 16.09344 0 0
4:15 am 04:15 Clear 72 22.1 64 17.5 75 75 ESE 5 7 29.94 1014 10 16.09344 0 0
4:35 am 04:35 Clear 71 21.5 64 17.5 78 78 ESE 5 7 29.94 1014 10 16.09344 0 0
4:55 am 04:55 Clear 71 21.6 64 17.5 78 78 Calm 29.94 1014 10 16.09344 0 0
5:15 am 05:15 Clear 67 19.3 64 17.8 91 91 ESE 3 6 29.97 1015 10 16.09344 0 0
5:35 am 05:35 Clear 65 18.2 63 17 93 93 NE 5 7 29.97 1015 10 16.09344 0 0
5:55 am 05:55 Clear 65 18.6 63 17.2 92 92 E 6 9 29.97 1015 10 16.09344 0 0
6:15 am 06:15 Sunny 65 18.3 62 16.8 91 91 Calm 29.97 1015 10 16.09344 0 0
6:35 am 06:35 Sunny 64 17.8 62 16.7 93 93 E 3 6 29.97 1015 10 16.09344 0 0
6:55 am 06:55 Sunny 64 17.9 62 16.8 93 93 Calm 29.97 1015 10 16.09344 0 0
7:15 am 07:15 Sunny 66 19.1 64 17.5 91 91 Calm 29.97 1015 10 16.09344 0 0
7:35 am 07:35 Sunny 70 21.3 65 18.4 84 84 SSE 7 11 29.94 1014 10 16.09344 0 0
7:55 am 07:55 Sunny 71 21.5 65 18.6 84 84 S 5 7 29.94 1014 10 16.09344 0 0
8:15 am 08:15 Sunny 73 22.5 66 19 81 81 SSW 6 9 29.94 1014 10 16.09344 0 0
8:35 am 08:35 Sunny 74 23.3 67 19.4 79 79 SSW 6 9 29.94 1014 10 16.09344 0 0
8:55 am 08:55 Sunny 75 23.7 67 19.7 78 78 SSE 6 9 29.91 1013 10 16.09344 0 0
9:15 am 09:15 Sunny 77 25 67 19.7 72 72 S 8 13 29.91 1013 10 16.09344 0 0
9:35 am 09:35 Sunny 79 26 67 19.4 67 67 S 10 17 29.91 1013 10 16.09344 0 0
9:55 am 09:55 Sunny 81 27.2 67 19.5 63 63 SSW 8 13 29.91 1013 7 11.265408 0 0
10:15 am 10:15 Sunny 82 27.8 67 19.7 61 61 SSE 7 11 29.88 1012 10 16.09344 0 0
10:35 am 10:35 Sunny 85 29.2 68 19.8 57 57 S 9 15 29.88 1012 10 16.09344 0 0
10:55 am 10:55 Sunny 86 29.9 68 19.8 55 55 S 8 13 29.88 1012 10 16.09344 0 0
11:15 am 11:15 Sunny 88 31 67 19.5 50 50 S 10 17 29.85 1011 10 16.09344 0 0
11:35 am 11:35 Sunny 88 31.3 67 19.4 49 49 SSW 9 15 29.85 1011 10 16.09344 0 0
11:55 am 11:55 Sunny 89 31.6 68 20.2 51 51 S 12 19 29.85 1011 10 16.09344 0 0
12:15 pm 12:15 Sunny 90 32.1 68 19.8 48 48 SSE 10 17 29.85 1011 10 16.09344 0 0
12:35 pm 12:35 Sunny 91 33 68 20 46 46 S 13 20 29.85 1011 10 16.09344 0 0
12:55 pm 12:55 Sunny 93 34 68 20.1 44 44 S 13 20 29.85 1011 10 16.09344 0 0
1:15 pm 13:15 Hazy 94 34.2 68 20.1 44 44 S 13 20 29.85 1011 4 6.437376 0 0
1:35 pm 13:35 Sunny 93 34 69 20.5 45 45 SSE 15 24 29.85 1011 10 16.09344 0 0
1:55 pm 13:55 Sunny 94 34.5 70 20.9 45 45 S 15 24 29.8 1009 10 16.09344 0 0
2:15 pm 14:15 Sunny 94 34.3 69 20.8 45 45 SSE 20 31 29.83 1010 10 16.09344 0 0
2:35 pm 14:35 Sunny 94 34.4 68 20.2 43 43 SSE 20 31 29.8 1009 10 16.09344 0 0
2:55 pm 14:55 Sunny 94 34.5 68 19.8 42 42 SSE 17 28 29.8 1009 10 16.09344 0 0
3:15 pm 15:15 Sunny 94 34.7 67 19.5 41 41 SSE 17 28 29.8 1009 10 16.09344 0 0
3:35 pm 15:35 Sunny 95 35.1 66 19.1 39 39 S 14 22 29.8 1009 10 16.09344 0 0
3:55 pm 15:55 Sunny 95 35.1 65 18.2 37 37 S 21 33 29.8 1009 10 16.09344 0 0
4:15 pm 16:15 Sunny 96 35.4 66 18.8 37 37 S 15 24 29.77 1008 10 16.09344 0 0
4:35 pm 16:35 Sunny 96 35.3 68 19.9 40 40 S 17 28 29.77 1008 10 16.09344 0 0
4:55 pm 16:55 Sunny 95 35.2 66 18.8 38 38 SSE 21 33 29.77 1008 10 16.09344 0 0
5:15 pm 17:15 Sunny 95 35 65 18.4 37 37 S 21 33 29.77 1008 10 16.09344 0 0
5:35 pm 17:35 Sunny 94 34.7 64 17.7 36 36 SSE 18 30 29.77 1008 10 16.09344 0 0
5:55 pm 17:55 Sunny 94 34.6 65 18.3 38 38 SSE 20 31 29.77 1008 10 16.09344 0 0
6:15 pm 18:15 Sunny 94 34.2 63 17.4 37 37 SSE 22 35 29.74 1007 10 16.09344 0 0
6:35 pm 18:35 Sunny 93 34 63 17.2 37 37 SSE 18 30 29.74 1007 10 16.09344 0 0
7:15 pm 19:15 Sunny 91 32.9 62 16.5 37 37 SSE 15 24 29.77 1008 10 16.09344 0 0
7:35 pm 19:35 Sunny 90 32.4 63 17.4 41 41 S 12 19 29.77 1008 10 16.09344 0 0
7:55 pm 19:55 Sunny 86 30.2 64 18 48 48 SSE 12 19 29.77 1008 10 16.09344 0 0
8:15 pm 20:15 Sunny 85 29.3 64 18 51 51 SSE 10 17 29.8 1009 10 16.09344 0 0
8:35 pm 20:35 Sunny 83 28.6 65 18.4 54 54 SSE 9 15 29.8 1009 10 16.09344 0 0
8:55 pm 20:55 Sunny 83 28.1 66 18.8 57 57 SSE 12 19 29.8 1009 10 16.09344 0 0
9:15 pm 21:15 Clear 81 27.4 65 18.5 58 58 SSE 10 17 29.8 1009 10 16.09344 0 0
9:35 pm 21:35 Clear 80 26.6 65 18.5 61 61 SSE 9 15 29.83 1010 10 16.09344 0 0
9:55 pm 21:55 Clear 79 25.9 65 18.6 64 64 SSE 9 15 29.85 1011 10 16.09344 0 0
10:15 pm 22:15 Clear 78 25.5 65 18.5 65 65 SSE 9 15 29.85 1011 10 16.09344 0 0
10:35 pm 22:35 Clear 77 25 65 18.5 67 67 SSE 9 15 29.88 1012 10 16.09344 0 0
10:55 pm 22:55 Clear 76 24.7 65 18.5 69 69 SSE 7 11 29.88 1012 10 16.09344 0 0
11:15 pm 23:15 Clear 75 23.9 65 18.3 71 71 SSE 7 11 29.88 1012 10 16.09344 0 0
11:35 pm 23:35 Clear 73 23 65 18.5 76 76 SSE 8 13 29.91 1013 10 16.09344 0 0
11:55 pm 23:55 Clear 75 23.9 65 18.4 71 71 SSE 10 17 29.91 1013 10 16.09344 0 0

Powered by AerisWeather